Saint Bonnet de Bellac- Haute Vienne - France
Donnes mto: mercredi, 26/09/2012
Date Horaire Temp. E. Hum. E. P.atmo. Pluie Vent Direction Direction Ensoleilleme Solaire P. de rose Temp au vent Rafales
26/09/2012 00:00 11,1 C 93 % 999,5 hPa 0,1 mm 6,8 km/h (2 Bft) SO 225 0 min 0 W/m 10,0 C 11,1 C 11,9 km/h (2 Bft)
26/09/2012 00:10 10,9 C 93 % 999,5 hPa 0,0 mm 8,3 km/h (2 Bft) S-SO 202 0 min 0 W/m 9,8 C 10,9 C 13,3 km/h (3 Bft)
26/09/2012 00:20 10,8 C 92 % 999,2 hPa 0,1 mm 7,6 km/h (2 Bft) S-SE 157 0 min 0 W/m 9,6 C 10,8 C 8,3 km/h (2 Bft)
26/09/2012 00:30 10,6 C 92 % 999,1 hPa 0,1 mm 6,1 km/h (2 Bft) S 180 0 min 0 W/m 9,4 C 10,6 C 8,6 km/h (2 Bft)
26/09/2012 00:40 10,6 C 93 % 999,3 hPa 0,2 mm 7,6 km/h (2 Bft) S 180 0 min 0 W/m 9,5 C 10,6 C 9,0 km/h (2 Bft)
26/09/2012 00:50 10,6 C 93 % 999,3 hPa 0,0 mm 10,4 km/h (2 Bft) S 180 0 min 0 W/m 9,5 C 10,6 C 12,6 km/h (3 Bft)
26/09/2012 01:00 10,6 C 93 % 999,5 hPa 0,0 mm 5,0 km/h (1 Bft) SO 225 0 min 0 W/m 9,5 C 10,6 C 10,1 km/h (2 Bft)
26/09/2012 01:10 10,6 C 93 % 999,4 hPa 0,0 mm 7,2 km/h (2 Bft) SO 225 0 min 0 W/m 9,5 C 10,6 C 12,6 km/h (3 Bft)
26/09/2012 01:20 10,6 C 93 % 999,3 hPa 0,0 mm 9,4 km/h (2 Bft) S 180 0 min 0 W/m 9,5 C 10,6 C 10,4 km/h (2 Bft)
26/09/2012 01:30 10,6 C 93 % 999,2 hPa 0,1 mm 6,5 km/h (2 Bft) S-SO 202 0 min 0 W/m 9,5 C 10,6 C 10,4 km/h (2 Bft)
26/09/2012 01:40 10,6 C 93 % 999,4 hPa 0,0 mm 6,5 km/h (2 Bft) SO 225 0 min 0 W/m 9,5 C 10,6 C 6,5 km/h (2 Bft)
26/09/2012 01:50 10,6 C 93 % 999,2 hPa 0,0 mm 6,1 km/h (2 Bft) S 180 0 min 0 W/m 9,5 C 10,6 C 13,0 km/h (3 Bft)
26/09/2012 02:00 10,6 C 93 % 999,3 hPa 0,0 mm 3,6 km/h (1 Bft) S-SO 202 0 min 0 W/m 9,5 C 10,6 C 6,8 km/h (2 Bft)
26/09/2012 02:10 10,6 C 93 % 999,3 hPa 0,1 mm 3,2 km/h (1 Bft) S-SO 202 0 min 0 W/m 9,5 C 10,6 C 3,2 km/h (1 Bft)
26/09/2012 02:20 10,5 C 93 % 999,2 hPa 0,0 mm 8,3 km/h (2 Bft) S-SO 202 0 min 0 W/m 9,4 C 10,5 C 14,0 km/h (3 Bft)
26/09/2012 02:30 10,5 C 93 % 998,9 hPa 0,1 mm 3,2 km/h (1 Bft) S 180 0 min 0 W/m 9,4 C 10,5 C 4,0 km/h (1 Bft)
26/09/2012 02:40 10,5 C 93 % 998,8 hPa 0,0 mm 5,4 km/h (2 Bft) S 180 0 min 0 W/m 9,4 C 10,5 C 11,5 km/h (2 Bft)
26/09/2012 02:50 10,5 C 93 % 998,8 hPa 0,0 mm 5,4 km/h (2 Bft) SE 135 0 min 0 W/m 9,4 C 10,5 C 11,2 km/h (2 Bft)
26/09/2012 03:02 10,5 C 93 % 998,9 hPa 0,0 mm 10,1 km/h (2 Bft) S-SE 157 0 min 0 W/m 9,4 C 10,5 C 15,1 km/h (3 Bft)
26/09/2012 03:10 10,5 C 93 % 998,9 hPa 0,1 mm 2,5 km/h (1 Bft) S 180 0 min 0 W/m 9,4 C 10,5 C 3,2 km/h (1 Bft)
26/09/2012 03:20 10,6 C 93 % 998,9 hPa 0,0 mm 5,8 km/h (2 Bft) S-SO 202 0 min 0 W/m 9,5 C 10,6 C 8,3 km/h (2 Bft)
26/09/2012 03:30 10,6 C 93 % 999,2 hPa 0,0 mm 7,2 km/h (2 Bft) SO 225 0 min 0 W/m 9,5 C 10,6 C 15,1 km/h (3 Bft)
26/09/2012 03:40 10,8 C 93 % 999,0 hPa 0,0 mm 9,7 km/h (2 Bft) S-SO 202 0 min 0 W/m 9,7 C 10,8 C 10,8 km/h (2 Bft)
26/09/2012 03:50 10,8 C 93 % 998,8 hPa 0,0 mm 6,1 km/h (2 Bft) S 180 0 min 0 W/m 9,7 C 10,8 C 12,2 km/h (2 Bft)
26/09/2012 04:00 10,8 C 93 % 998,5 hPa 0,0 mm 9,0 km/h (2 Bft) SO 225 0 min 0 W/m 9,7 C 10,8 C 9,7 km/h (2 Bft)
26/09/2012 04:10 10,8 C 93 % 998,8 hPa 0,0 mm 7,6 km/h (2 Bft) S-SO 202 0 min 0 W/m 9,7 C 10,8 C 15,5 km/h (3 Bft)
26/09/2012 04:20 10,7 C 93 % 998,7 hPa 0,0 mm 6,1 km/h (2 Bft) O-SO 247 0 min 0 W/m 9,6 C 10,7 C 7,9 km/h (2 Bft)
26/09/2012 04:30 10,6 C 93 % 998,6 hPa 0,0 mm 4,7 km/h (1 Bft) S 180 0 min 0 W/m 9,5 C 10,6 C 6,1 km/h (2 Bft)
26/09/2012 04:40 10,6 C 93 % 998,5 hPa 0,0 mm 6,5 km/h (2 Bft) S-SO 202 0 min 0 W/m 9,5 C 10,6 C 7,9 km/h (2 Bft)
26/09/2012 04:50 10,7 C 93 % 998,5 hPa 0,0 mm 5,0 km/h (1 Bft) SO 225 0 min 0 W/m 9,6 C 10,7 C 9,0 km/h (2 Bft)
26/09/2012 05:00 10,8 C 93 % 998,3 hPa 0,0 mm 9,4 km/h (2 Bft) S-SO 202 0 min 0 W/m 9,7 C 10,8 C 14,4 km/h (3 Bft)
26/09/2012 05:10 10,8 C 93 % 998,4 hPa 0,0 mm 0,7 km/h (0 Bft) O-SO 247 0 min 0 W/m 9,7 C 10,8 C 3,2 km/h (1 Bft)
26/09/2012 05:20 10,8 C 93 % 998,5 hPa 0,0 mm 5,8 km/h (2 Bft) SO 225 0 min 0 W/m 9,7 C 10,8 C 9,4 km/h (2 Bft)
26/09/2012 05:30 10,8 C 92 % 998,4 hPa 0,0 mm 6,5 km/h (2 Bft) S-SO 202 0 min 0 W/m 9,6 C 10,8 C 12,2 km/h (2 Bft)
26/09/2012 05:40 10,9 C 93 % 998,7 hPa 0,0 mm 7,2 km/h (2 Bft) SO 225 0 min 0 W/m 9,8 C 10,9 C 13,7 km/h (3 Bft)
26/09/2012 05:50 10,9 C 93 % 998,7 hPa 0,1 mm 3,2 km/h (1 Bft) S-SO 202 0 min 0 W/m 9,8 C 10,9 C 8,3 km/h (2 Bft)
26/09/2012 06:00 10,9 C 93 % 998,4 hPa 0,1 mm 5,8 km/h (2 Bft) S 180 0 min 0 W/m 9,8 C 10,9 C 8,3 km/h (2 Bft)
26/09/2012 06:10 10,9 C 93 % 998,3 hPa 0,0 mm 6,8 km/h (2 Bft) S 180 0 min 0 W/m 9,8 C 10,9 C 14,0 km/h (3 Bft)
26/09/2012 06:20 10,9 C 93 % 998,4 hPa 0,0 mm 8,6 km/h (2 Bft) S 180 0 min 0 W/m 9,8 C 10,9 C 14,8 km/h (3 Bft)
26/09/2012 06:30 10,9 C 93 % 998,4 hPa 0,0 mm 13,7 km/h (3 Bft) SE 135 0 min 0 W/m 9,8 C 10,9 C 13,7 km/h (3 Bft)
26/09/2012 06:40 10,9 C 93 % 998,3 hPa 0,0 mm 10,1 km/h (2 Bft) S 180 0 min 0 W/m 9,8 C 10,9 C 10,1 km/h (2 Bft)
26/09/2012 06:50 10,9 C 92 % 998,2 hPa 0,0 mm 8,6 km/h (2 Bft) S-SO 202 0 min 0 W/m 9,7 C 10,9 C 16,2 km/h (3 Bft)
26/09/2012 07:00 10,9 C 92 % 998,1 hPa 0,0 mm 7,9 km/h (2 Bft) S-SE 157 0 min 0 W/m 9,7 C 10,9 C 13,0 km/h (3 Bft)
26/09/2012 07:10 11,0 C 92 % 998,6 hPa 0,1 mm 9,7 km/h (2 Bft) S-SO 202 0 min 0 W/m 9,8 C 11,0 C 15,5 km/h (3 Bft)
26/09/2012 07:20 11,1 C 92 % 998,4 hPa 0,0 mm 8,3 km/h (2 Bft) S-SO 202 0 min 0 W/m 9,8 C 11,1 C 12,6 km/h (3 Bft)
26/09/2012 07:30 11,1 C 92 % 998,5 hPa 0,0 mm 11,2 km/h (2 Bft) S-SO 202 0 min 0 W/m 9,8 C 11,1 C 12,2 km/h (2 Bft)
26/09/2012 07:40 11,1 C 92 % 998,5 hPa 0,0 mm 7,2 km/h (2 Bft) S-SO 202 0 min 0 W/m 9,8 C 11,1 C 10,8 km/h (2 Bft)
26/09/2012 07:50 11,1 C 91 % 998,6 hPa 0,0 mm 14,4 km/h (3 Bft) S 180 0 min 0 W/m 9,7 C 11,1 C 20,2 km/h (4 Bft)
26/09/2012 08:00 11,1 C 91 % 998,7 hPa 0,0 mm 11,2 km/h (2 Bft) S-SO 202 0 min 0 W/m 9,7 C 11,1 C 11,2 km/h (2 Bft)
26/09/2012 08:10 11,1 C 91 % 998,6 hPa 0,0 mm 4,7 km/h (1 Bft) SE 135 0 min 0 W/m 9,7 C 11,1 C 10,1 km/h (2 Bft)
26/09/2012 08:20 11,1 C 91 % 999,1 hPa 0,0 mm 10,8 km/h (2 Bft) SO 225 0 min 0 W/m 9,7 C 11,1 C 16,9 km/h (3 Bft)
26/09/2012 08:30 11,1 C 91 % 999,0 hPa 0,0 mm 6,1 km/h (2 Bft) S-SO 202 0 min 0 W/m 9,7 C 11,1 C 8,6 km/h (2 Bft)
26/09/2012 08:40 11,2 C 91 % 999,5 hPa 0,0 mm 8,3 km/h (2 Bft) S-SE 157 0 min 0 W/m 9,8 C 11,2 C 9,7 km/h (2 Bft)
26/09/2012 08:50 11,2 C 91 % 999,4 hPa 0,0 mm 7,2 km/h (2 Bft) SO 225 0 min 0 W/m 9,8 C 11,2 C 7,6 km/h (2 Bft)
26/09/2012 09:00 11,3 C 91 % 999,4 hPa 0,0 mm 6,8 km/h (2 Bft) SO 225 0 min 0 W/m 9,9 C 11,3 C 12,2 km/h (2 Bft)
26/09/2012 09:10 11,4 C 91 % 999,2 hPa 0,0 mm 5,8 km/h (2 Bft) S-SE 157 0 min 0 W/m 10,0 C 11,4 C 12,2 km/h (2 Bft)
26/09/2012 09:20 11,4 C 91 % 999,2 hPa 0,0 mm 8,6 km/h (2 Bft) S-SO 202 0 min 0 W/m 10,0 C 11,4 C 13,7 km/h (3 Bft)
26/09/2012 09:30 11,4 C 91 % 999,6 hPa 0,0 mm 13,0 km/h (3 Bft) SE 135 0 min 0 W/m 10,0 C 11,4 C 20,2 km/h (4 Bft)
26/09/2012 09:40 11,5 C 91 % 999,5 hPa 0,0 mm 9,4 km/h (2 Bft) S 180 0 min 0 W/m 10,1 C 11,5 C 9,4 km/h (2 Bft)
26/09/2012 09:50 11,5 C 91 % 999,8 hPa 0,0 mm 13,0 km/h (3 Bft) S-SO 202 0 min 0 W/m 10,1 C 11,5 C 20,5 km/h (4 Bft)
26/09/2012 10:00 11,6 C 91 % 999,8 hPa 0,0 mm 10,1 km/h (2 Bft) SO 225 0 min 0 W/m 10,2 C 11,6 C 16,9 km/h (3 Bft)
26/09/2012 10:10 11,5 C 91 % 999,6 hPa 0,0 mm 7,2 km/h (2 Bft) S-SO 202 0 min 0 W/m 10,1 C 11,5 C 10,4 km/h (2 Bft)
26/09/2012 10:20 11,5 C 91 % 999,9 hPa 0,0 mm 8,6 km/h (2 Bft) S-SO 202 0 min 0 W/m 10,1 C 11,5 C 10,8 km/h (2 Bft)
26/09/2012 10:30 11,6 C 91 % 1000,0 hPa 0,0 mm 3,2 km/h (1 Bft) SO 225 0 min 0 W/m 10,2 C 11,6 C 6,8 km/h (2 Bft)
26/09/2012 10:40 11,6 C 91 % 1000,3 hPa 0,0 mm 3,6 km/h (1 Bft) SO 225 0 min 0 W/m 10,2 C 11,6 C 3,6 km/h (1 Bft)
26/09/2012 10:50 11,8 C 91 % 1000,4 hPa 0,0 mm 4,7 km/h (1 Bft) O-SO 247 0 min 0 W/m 10,4 C 11,8 C 6,5 km/h (2 Bft)
26/09/2012 11:00 11,8 C 91 % 1000,3 hPa 0,0 mm 7,2 km/h (2 Bft) O-SO 247 0 min 0 W/m 10,4 C 11,8 C 11,5 km/h (2 Bft)
26/09/2012 11:10 11,8 C 90 % 1000,3 hPa 0,0 mm 11,9 km/h (2 Bft) S-SE 157 0 min 0 W/m 10,2 C 11,8 C 16,9 km/h (3 Bft)
26/09/2012 11:20 11,9 C 90 % 1000,5 hPa 0,0 mm 5,4 km/h (2 Bft) O-SO 247 0 min 0 W/m 10,3 C 11,9 C 5,4 km/h (2 Bft)
26/09/2012 11:30 12,1 C 90 % 1000,5 hPa 0,0 mm 9,4 km/h (2 Bft) SO 225 0 min 0 W/m 10,5 C 12,1 C 14,4 km/h (3 Bft)
26/09/2012 11:40 12,2 C 90 % 1000,7 hPa 0,0 mm 9,0 km/h (2 Bft) SO 225 0 min 0 W/m 10,6 C 12,2 C 12,2 km/h (2 Bft)
26/09/2012 11:50 12,3 C 90 % 1000,5 hPa 0,0 mm 10,4 km/h (2 Bft) S 180 0 min 0 W/m 10,7 C 12,3 C 10,4 km/h (2 Bft)
26/09/2012 12:00 12,3 C 89 % 1000,5 hPa 0,0 mm 7,6 km/h (2 Bft) S-SO 202 0 min 0 W/m 10,5 C 12,3 C 7,9 km/h (2 Bft)
26/09/2012 12:10 12,3 C 89 % 1000,6 hPa 0,0 mm 6,1 km/h (2 Bft) SE 135 0 min 0 W/m 10,5 C 12,3 C 10,8 km/h (2 Bft)
26/09/2012 12:20 12,4 C 89 % 1000,7 hPa 0,0 mm 12,6 km/h (3 Bft) S 180 0 min 0 W/m 10,6 C 12,4 C 16,2 km/h (3 Bft)
26/09/2012 12:30 12,6 C 89 % 1000,7 hPa 0,0 mm 9,0 km/h (2 Bft) S-SO 202 0 min 0 W/m 10,8 C 12,6 C 16,6 km/h (3 Bft)
26/09/2012 12:40 13,4 C 88 % 1000,8 hPa 0,0 mm 14,8 km/h (3 Bft) S-SO 202 0 min 0 W/m 11,5 C 13,4 C 18,0 km/h (3 Bft)
26/09/2012 12:50 14,4 C 86 % 1000,8 hPa 0,0 mm 11,5 km/h (2 Bft) S 180 0 min 0 W/m 12,1 C 14,4 C 17,6 km/h (3 Bft)
26/09/2012 13:00 15,1 C 84 % 1001,0 hPa 0,0 mm 11,9 km/h (2 Bft) S 180 0 min 0 W/m 12,4 C 15,1 C 15,1 km/h (3 Bft)
26/09/2012 13:10 14,8 C 82 % 1000,9 hPa 0,0 mm 11,2 km/h (2 Bft) SO 225 0 min 0 W/m 11,8 C 14,8 C 17,3 km/h (3 Bft)
26/09/2012 13:20 14,9 C 82 % 1001,0 hPa 0,0 mm 9,7 km/h (2 Bft) S 180 0 min 0 W/m 11,9 C 14,9 C 16,2 km/h (3 Bft)
26/09/2012 13:30 15,6 C 79 % 1000,9 hPa 0,0 mm 11,2 km/h (2 Bft) SO 225 0 min 0 W/m 12,0 C 15,6 C 16,9 km/h (3 Bft)
26/09/2012 13:40 16,1 C 77 % 1001,1 hPa 0,0 mm 7,9 km/h (2 Bft) SO 225 0 min 0 W/m 12,1 C 16,1 C 15,5 km/h (3 Bft)
26/09/2012 13:50 16,4 C 76 % 1001,1 hPa 0,0 mm 11,2 km/h (2 Bft) O-SO 247 0 min 0 W/m 12,2 C 16,4 C 15,5 km/h (3 Bft)
26/09/2012 14:00 16,4 C 74 % 1001,2 hPa 0,0 mm 17,6 km/h (3 Bft) SO 225 0 min 0 W/m 11,8 C 16,4 C 22,0 km/h (4 Bft)
26/09/2012 14:10 16,5 C 74 % 1001,3 hPa 0,0 mm 12,6 km/h (3 Bft) S-SO 202 0 min 0 W/m 11,8 C 16,5 C 19,1 km/h (3 Bft)
26/09/2012 14:20 16,8 C 74 % 1001,3 hPa 0,0 mm 13,3 km/h (3 Bft) S-SO 202 0 min 0 W/m 12,1 C 16,8 C 16,6 km/h (3 Bft)
26/09/2012 14:30 17,1 C 72 % 1001,3 hPa 0,0 mm 8,6 km/h (2 Bft) S 180 0 min 0 W/m 12,0 C 17,1 C 15,8 km/h (3 Bft)
26/09/2012 14:40 17,1 C 71 % 1001,3 hPa 0,0 mm 10,8 km/h (2 Bft) S 180 0 min 0 W/m 11,8 C 17,1 C 11,2 km/h (2 Bft)
26/09/2012 14:50 16,3 C 74 % 1001,1 hPa 0,1 mm 15,8 km/h (3 Bft) SO 225 0 min 0 W/m 11,7 C 16,3 C 15,8 km/h (3 Bft)
26/09/2012 15:00 15,1 C 79 % 1001,2 hPa 0,2 mm 8,3 km/h (2 Bft) SO 225 0 min 0 W/m 11,5 C 15,1 C 8,3 km/h (2 Bft)
26/09/2012 15:10 14,6 C 83 % 1001,4 hPa 0,1 mm 6,5 km/h (2 Bft) O-SO 247 0 min 0 W/m 11,7 C 14,6 C 9,7 km/h (2 Bft)
26/09/2012 15:20 15,1 C 83 % 1001,3 hPa 0,0 mm 14,4 km/h (3 Bft) S 180 0 min 0 W/m 12,2 C 15,1 C 22,0 km/h (4 Bft)
26/09/2012 15:30 15,4 C 80 % 1001,4 hPa 0,0 mm 11,9 km/h (2 Bft) S 180 0 min 0 W/m 12,0 C 15,4 C 15,8 km/h (3 Bft)
26/09/2012 15:40 15,5 C 81 % 1001,4 hPa 0,0 mm 7,6 km/h (2 Bft) O-SO 247 0 min 0 W/m 12,3 C 15,5 C 10,1 km/h (2 Bft)
26/09/2012 15:50 15,7 C 78 % 1001,3 hPa 0,0 mm 11,9 km/h (2 Bft) S-SO 202 0 min 0 W/m 11,9 C 15,7 C 20,5 km/h (4 Bft)
26/09/2012 16:00 15,8 C 77 % 1001,3 hPa 0,0 mm 9,7 km/h (2 Bft) S 180 0 min 0 W/m 11,8 C 15,8 C 16,9 km/h (3 Bft)
26/09/2012 16:10 15,8 C 77 % 1001,4 hPa 0,0 mm 10,4 km/h (2 Bft) SO 225 0 min 0 W/m 11,8 C 15,8 C 18,4 km/h (3 Bft)
26/09/2012 16:20 15,9 C 76 % 1001,4 hPa 0,0 mm 11,2 km/h (2 Bft) S-SO 202 0 min 0 W/m 11,7 C 15,9 C 11,9 km/h (2 Bft)
26/09/2012 16:30 15,8 C 76 % 1001,5 hPa 0,0 mm 16,9 km/h (3 Bft) S-SO 202 0 min 0 W/m 11,6 C 15,8 C 24,5 km/h (4 Bft)
26/09/2012 16:40 15,2 C 78 % 1002,0 hPa 0,4 mm 3,6 km/h (1 Bft) SO 225 0 min 0 W/m 11,4 C 15,2 C 11,2 km/h (2 Bft)
26/09/2012 16:50 13,8 C 82 % 1001,7 hPa 1,5 mm 7,9 km/h (2 Bft) S-SO 202 0 min 0 W/m 10,8 C 13,8 C 13,3 km/h (3 Bft)
26/09/2012 17:00 13,3 C 87 % 1001,7 hPa 0,2 mm 5,8 km/h (2 Bft) S-SO 202 0 min 0 W/m 11,2 C 13,3 C 6,8 km/h (2 Bft)
26/09/2012 17:10 13,4 C 88 % 1001,6 hPa 0,0 mm 9,0 km/h (2 Bft) SO 225 0 min 0 W/m 11,5 C 13,4 C 9,0 km/h (2 Bft)
26/09/2012 17:20 13,8 C 88 % 1001,6 hPa 0,0 mm 11,9 km/h (2 Bft) S-SO 202 0 min 0 W/m 11,8 C 13,8 C 19,4 km/h (3 Bft)
26/09/2012 17:30 13,9 C 87 % 1001,7 hPa 0,0 mm 13,0 km/h (3 Bft) S 180 0 min 0 W/m 11,8 C 13,9 C 16,9 km/h (3 Bft)
26/09/2012 17:40 13,7 C 86 % 1001,8 hPa 0,0 mm 5,0 km/h (1 Bft) S 180 0 min 0 W/m 11,4 C 13,7 C 9,7 km/h (2 Bft)
26/09/2012 17:50 13,6 C 87 % 1001,6 hPa 0,0 mm 6,5 km/h (2 Bft) SO 225 0 min 0 W/m 11,5 C 13,6 C 13,7 km/h (3 Bft)
26/09/2012 18:00 13,4 C 87 % 1001,6 hPa 0,0 mm 7,9 km/h (2 Bft) S-SO 202 0 min 0 W/m 11,3 C 13,4 C 9,7 km/h (2 Bft)
26/09/2012 18:10 13,4 C 88 % 1001,8 hPa 0,1 mm 9,0 km/h (2 Bft) S-SO 202 0 min 0 W/m 11,5 C 13,4 C 12,6 km/h (3 Bft)
26/09/2012 18:20 13,3 C 88 % 1001,8 hPa 0,0 mm 7,2 km/h (2 Bft) SO 225 0 min 0 W/m 11,4 C 13,3 C 11,5 km/h (2 Bft)
26/09/2012 18:30 13,1 C 88 % 1002,0 hPa 0,0 mm 8,6 km/h (2 Bft) S-SO 202 0 min 0 W/m 11,2 C 13,1 C 11,5 km/h (2 Bft)
26/09/2012 18:40 13,0 C 89 % 1002,0 hPa 0,1 mm 12,2 km/h (2 Bft) SO 225 0 min 0 W/m 11,2 C 13,0 C 15,8 km/h (3 Bft)
26/09/2012 18:50 12,9 C 89 % 1002,0 hPa 0,0 mm 6,5 km/h (2 Bft) S-SO 202 0 min 0 W/m 11,1 C 12,9 C 8,3 km/h (2 Bft)
26/09/2012 19:00 12,9 C 90 % 1002,0 hPa 0,0 mm 7,9 km/h (2 Bft) S-SO 202 0 min 0 W/m 11,3 C 12,9 C 14,0 km/h (3 Bft)
26/09/2012 19:10 12,9 C 89 % 1001,9 hPa 0,0 mm 9,0 km/h (2 Bft) SO 225 0 min 0 W/m 11,1 C 12,9 C 15,8 km/h (3 Bft)
26/09/2012 19:20 12,9 C 89 % 1002,1 hPa 0,0 mm 7,9 km/h (2 Bft) O-SO 247 0 min 0 W/m 11,1 C 12,9 C 11,9 km/h (2 Bft)
26/09/2012 19:30 12,8 C 89 % 1002,1 hPa 0,0 mm 13,0 km/h (3 Bft) SO 225 0 min 0 W/m 11,0 C 12,8 C 13,0 km/h (3 Bft)
26/09/2012 19:40 12,6 C 89 % 1002,2 hPa 0,0 mm 6,5 km/h (2 Bft) SO 225 0 min 0 W/m 10,8 C 12,6 C 11,9 km/h (2 Bft)
26/09/2012 19:50 12,6 C 89 % 1002,2 hPa 0,0 mm 8,3 km/h (2 Bft) SO 225 0 min 0 W/m 10,8 C 12,6 C 12,2 km/h (2 Bft)
26/09/2012 20:00 12,4 C 89 % 1002,3 hPa 0,0 mm 9,0 km/h (2 Bft) SO 225 0 min 0 W/m 10,6 C 12,4 C 10,1 km/h (2 Bft)
26/09/2012 20:10 12,3 C 89 % 1002,2 hPa 0,0 mm 8,6 km/h (2 Bft) S-SO 202 0 min 0 W/m 10,5 C 12,3 C 10,4 km/h (2 Bft)
26/09/2012 20:20 12,3 C 89 % 1002,3 hPa 0,0 mm 6,5 km/h (2 Bft) S-SO 202 0 min 0 W/m 10,5 C 12,3 C 10,8 km/h (2 Bft)
26/09/2012 20:30 12,3 C 90 % 1002,5 hPa 0,0 mm 12,2 km/h (2 Bft) S 180 0 min 0 W/m 10,7 C 12,3 C 18,7 km/h (3 Bft)
26/09/2012 20:40 12,4 C 90 % 1002,6 hPa 0,0 mm 5,4 km/h (2 Bft) SO 225 0 min 0 W/m 10,8 C 12,4 C 11,9 km/h (2 Bft)
26/09/2012 20:50 12,5 C 90 % 1002,8 hPa 0,0 mm 3,6 km/h (1 Bft) S-SO 202 0 min 0 W/m 10,9 C 12,5 C 7,2 km/h (2 Bft)
26/09/2012 21:00 12,6 C 90 % 1003,1 hPa 0,0 mm 5,4 km/h (2 Bft) S-SO 202 0 min 0 W/m 11,0 C 12,6 C 9,7 km/h (2 Bft)
26/09/2012 21:10 12,6 C 90 % 1003,2 hPa 0,0 mm 9,0 km/h (2 Bft) O-SO 247 0 min 0 W/m 11,0 C 12,6 C 13,3 km/h (3 Bft)
26/09/2012 21:20 12,6 C 89 % 1003,3 hPa 0,0 mm 10,4 km/h (2 Bft) SO 225 0 min 0 W/m 10,8 C 12,6 C 15,1 km/h (3 Bft)
26/09/2012 21:30 12,7 C 89 % 1003,5 hPa 0,0 mm 9,4 km/h (2 Bft) S-SO 202 0 min 0 W/m 10,9 C 12,7 C 14,4 km/h (3 Bft)
26/09/2012 21:40 12,8 C 89 % 1003,6 hPa 0,0 mm 7,6 km/h (2 Bft) S-SO 202 0 min 0 W/m 11,0 C 12,8 C 9,7 km/h (2 Bft)
26/09/2012 21:50 12,8 C 89 % 1003,7 hPa 0,0 mm 7,6 km/h (2 Bft) S-SO 202 0 min 0 W/m 11,0 C 12,8 C 8,6 km/h (2 Bft)
26/09/2012 22:00 12,6 C 90 % 1004,0 hPa 0,0 mm 6,5 km/h (2 Bft) SO 225 0 min 0 W/m 11,0 C 12,6 C 13,3 km/h (3 Bft)
26/09/2012 22:10 12,6 C 90 % 1004,2 hPa 0,0 mm 5,0 km/h (1 Bft) S-SO 202 0 min 0 W/m 11,0 C 12,6 C 10,1 km/h (2 Bft)
26/09/2012 22:20 12,6 C 90 % 1004,4 hPa 0,0 mm 7,2 km/h (2 Bft) S-SO 202 0 min 0 W/m 11,0 C 12,6 C 12,6 km/h (3 Bft)
26/09/2012 22:30 12,6 C 91 % 1004,5 hPa 0,1 mm 6,5 km/h (2 Bft) SO 225 0 min 0 W/m 11,2 C 12,6 C 7,6 km/h (2 Bft)
26/09/2012 22:40 12,5 C 91 % 1004,7 hPa 0,0 mm 2,5 km/h (1 Bft) O-SO 247 0 min 0 W/m 11,1 C 12,5 C 4,3 km/h (1 Bft)
26/09/2012 22:50 12,4 C 91 % 1004,7 hPa 0,0 mm 3,6 km/h (1 Bft) SO 225 0 min 0 W/m 11,0 C 12,4 C 10,8 km/h (2 Bft)
26/09/2012 23:00 12,3 C 91 % 1004,9 hPa 0,0 mm 9,0 km/h (2 Bft) SO 225 0 min 0 W/m 10,9 C 12,3 C 16,2 km/h (3 Bft)
26/09/2012 23:10 12,1 C 92 % 1005,1 hPa 0,0 mm 4,7 km/h (1 Bft) SO 225 0 min 0 W/m 10,8 C 12,1 C 9,0 km/h (2 Bft)
26/09/2012 23:20 12,2 C 92 % 1005,2 hPa 0,0 mm 4,7 km/h (1 Bft) SO 225 0 min 0 W/m 10,9 C 12,2 C 6,8 km/h (2 Bft)
26/09/2012 23:30 12,2 C 92 % 1005,3 hPa 0,0 mm 7,6 km/h (2 Bft) S-SE 157 0 min 0 W/m 10,9 C 12,2 C 13,0 km/h (3 Bft)
26/09/2012 23:40 12,2 C 92 % 1005,4 hPa 0,0 mm 3,6 km/h (1 Bft) S-SO 202 0 min 0 W/m 10,9 C 12,2 C 6,1 km/h (2 Bft)
26/09/2012 23:50 12,2 C 92 % 1005,6 hPa 0,0 mm 8,3 km/h (2 Bft) S-SO 202 0 min 0 W/m 10,9 C 12,2 C 8,3 km/h (2 Bft)
_ Min-Heure 03:10 14:40 07:00 - 05:10 - - - - 00:30 03:10 05:10
Minimum _ 10,5 C 71 % 998,1 hPa - 0,7 km/h (0 Bft) - - - - 9,4 C 10,5 C 3,2 km/h (1 Bft)
_ Max-Heure 14:40 06:40 23:50 16:50 14:00 - - 23:50 23:50 13:00 14:40 16:30
Maximum _ 17,1 C 93 % 1005,6 hPa 1,5 mm 17,6 km/h
SO (3 Bft)
- - 0 min 0 W/m 12,4 C 17,1 C 24,5 km/h
S-SO (4 Bft)
Moyenne _ 12,4 C 89 % 1000,7 hPa #4,0 mm 8,2 km/h (2 Bft) S-SO - #0 min. 0 W/m 10,6 C 12,4 C 12,2 km/h (2 Bft)
Saint Bonnet de Bellac- Haute Vienne - France